Retour au catalogue

SL-6 R/B(2)

ActifHEO
NORAD 10167·ROCKET BODY·🇷🇺 Russia

Lancé Jul 20, 1977 depuis Plesetsk Cosmodrome

Loading…

Prochains Passages (prochaines 24 heures)

TLE

FraisSource: Space-Track

Époque: Sep 14, 2026, 07:30 UTC

1 10167U 77068D   26257.31308587  .00000741  00000-0  10676-2 0  9994
2 10167  61.4289 300.2322 7401202  50.5128 354.3546  1.99822944282590

Suivez SL-6 R/B(2) en temps réel avec AllMySat

Download on the App Store